Tracking 30995 objects as of 5-Jul-2025
HD Live streaming from Space Station
objects crossing your sky now

STARLINK-3986

Track STARLINK-3986 now!
10-day predictions
STARLINK-3986 is classified as:


NORAD ID: 52623
Int'l Code: 2022-052AB
Perigee: 546.0 km
Apogee: 547.8 km
Inclination: 53.2 °
Period: 95.4 minutes
Semi major axis: 6917 km
RCS: Unknown
Launch date: May 14, 2022
Source: United States (US)
Launch site: AIR FORCE EASTERN TEST RANGE (AFETR)
Your satellite tracking list
COSMOS 2251 DEB
Track 1 satellite(s)




NASA's NSSDC Master Catalog

Two Line Element Set (TLE):
1 52623U 22052AB  25186.58862574 -.00001445  00000-0 -72745-4 0  9991
2 52623  53.2194 298.4022 0001355  93.5235 266.5912 15.08834921173689
Source of the keplerian elements: AFSPC